TimeEDT,TemperatureF,Dew PointF,Humidity,Sea Level PressureIn,VisibilityMPH,Wind Direction,Wind SpeedMPH,Gust SpeedMPH,PrecipitationIn,Events,Conditions,WindDirDegrees,DateUTC
12:53 AM,55.9,52.0,87,29.76,9.0,ENE,4.6,-,N/A,,Clear,70,2013-04-12 04:53:00
1:53 AM,55.9,51.1,84,29.75,9.0,NE,4.6,-,N/A,,Mostly Cloudy,50,2013-04-12 05:53:00
2:33 AM,55.4,51.8,88,29.75,9.0,Variable,4.6,-,N/A,,Overcast,0,2013-04-12 06:33:00
2:53 AM,55.9,52.0,87,29.73,8.0,East,10.4,-,N/A,,Overcast,100,2013-04-12 06:53:00
3:31 AM,55.4,51.8,88,29.73,7.0,East,8.1,-,N/A,,Overcast,100,2013-04-12 07:31:00
3:53 AM,55.0,51.1,86,29.70,7.0,East,9.2,-,0.00,,Overcast,100,2013-04-12 07:53:00
4:53 AM,54.0,51.1,90,29.68,5.0,Variable,4.6,-,0.00,Rain,Light Rain,0,2013-04-12 08:53:00
5:53 AM,53.1,51.1,93,29.65,5.0,ESE,3.5,-,0.06,Rain,Light Rain,110,2013-04-12 09:53:00
6:30 AM,51.8,50.0,94,29.64,2.5,East,8.1,-,0.08,Rain,Heavy Rain,90,2013-04-12 10:30:00
6:46 AM,51.8,51.8,100,29.71,1.0,Variable,3.5,31.1,0.31,Rain,Rain,0,2013-04-12 10:46:00
6:53 AM,52.0,51.1,97,29.70,2.5,Calm,Calm,-,0.34,Rain,Rain,0,2013-04-12 10:53:00
7:15 AM,53.6,51.8,94,29.70,3.0,Calm,Calm,-,0.08,Rain,Rain,0,2013-04-12 11:15:00
7:53 AM,53.1,51.1,93,29.68,4.0,ENE,5.8,-,0.14,Rain,Rain,60,2013-04-12 11:53:00
8:01 AM,53.6,51.8,94,29.67,2.5,ENE,5.8,-,0.03,Rain,Rain,60,2013-04-12 12:01:00
8:07 AM,53.6,51.8,94,29.68,2.5,NE,6.9,-,0.06,Rain,Rain,40,2013-04-12 12:07:00
8:18 AM,53.6,51.8,94,29.67,3.0,ENE,6.9,-,0.08,Rain,Rain,60,2013-04-12 12:18:00
8:53 AM,53.1,51.1,93,29.67,10.0,ENE,4.6,-,0.09,,Overcast,60,2013-04-12 12:53:00
9:53 AM,54.0,52.0,93,29.66,10.0,East,4.6,-,N/A,,Overcast,80,2013-04-12 13:53:00
10:53 AM,57.0,54.0,89,29.66,10.0,East,4.6,-,N/A,,Overcast,80,2013-04-12 14:53:00
11:53 AM,57.9,54.0,87,29.66,10.0,North,4.6,-,N/A,,Overcast,10,2013-04-12 15:53:00
12:53 PM,57.0,53.1,87,29.66,9.0,NNE,8.1,-,0.00,Rain,Light Rain,20,2013-04-12 16:53:00
1:53 PM,60.1,54.0,80,29.63,10.0,NNE,6.9,-,0.00,,Overcast,20,2013-04-12 17:53:00
2:53 PM,63.0,55.0,75,29.61,10.0,North,8.1,-,N/A,,Mostly Cloudy,350,2013-04-12 18:53:00
3:53 PM,66.9,57.0,70,29.59,10.0,North,8.1,-,N/A,,Partly Cloudy,10,2013-04-12 19:53:00
4:53 PM,63.0,55.9,78,29.60,7.0,North,6.9,-,0.00,Rain,Light Rain,10,2013-04-12 20:53:00
5:53 PM,62.1,55.0,78,29.61,8.0,NE,8.1,-,0.00,,Overcast,40,2013-04-12 21:53:00
6:53 PM,60.1,54.0,80,29.62,6.0,NNE,8.1,-,N/A,,Haze,20,2013-04-12 22:53:00
7:53 PM,57.0,52.0,83,29.64,5.0,North,9.2,-,N/A,,Haze,360,2013-04-12 23:53:00
8:53 PM,53.1,50.0,89,29.69,5.0,North,5.8,-,N/A,,Scattered Clouds,10,2013-04-13 00:53:00
9:53 PM,52.0,48.9,89,29.73,4.0,North,3.5,-,N/A,,Partly Cloudy,10,2013-04-13 01:53:00
10:53 PM,51.1,46.9,86,29.79,6.0,NNW,8.1,-,N/A,,Clear,340,2013-04-13 02:53:00
11:53 PM,53.1,35.1,50,29.81,10.0,NW,16.1,28.8,N/A,,Clear,310,2013-04-13 03:53:00